Location: Newark
(35.2672°N, 80.7344°W)
Time: 20:51:24
(UTC+00:00)

A-11 Canister half - Pass Details

Date: 25 January 2020
Orbit: 1524 x 1684 km, 47.3° (Epoch: 22 February)

Event Time Altitude Azimuth Distance (km) Brightness Sun altitude
Rises 00:32:56 0° 266° (W) 4,678 13.0 -22.5°
Reaches altitude 10° 00:36:09 10° 272° (W) 3,707 12.1 -23.1°
Maximum altitude 00:45:04 46° 344° (NNW) 1,999 9.6 -24.9°
Enters shadow 00:49:39 29° 38° (NE) 2,589 9.8 -25.8°
